Powrót do katalogu

STARLINK-36359

AktywnyŁącznośćSSO
NORAD 67979·PAYLOAD·🇺🇸 United States

Wystrzelony Feb 25, 2026 z Vandenberg Space Force Base

Loading…

Następne Przeloty (najbliższe 24 godziny)

TLE

ŚwieżeSource: CelesTrak SupGP

Epoka: Sep 14, 2026, 21:17 UTC

1 67979C 26038U   26257.88729167  .00041266  00000+0  12811-2 0  2577
2 67979  97.2846 266.3374 0001726  89.9752 323.8748 15.33414140    15

Śledź STARLINK-36359 w czasie rzeczywistym z AllMySat

Download on the App Store